Helicity
125 109 103 87 69 54 55 57 64 61 57 44 37 39 43 38 48 73 100 119 154 168 156 149 161 162 160 149 140 138 137 133 142 89 131 139 199 251 250 288 254 243 250
113 106 95 86 90 94 104 110 111 103 88 87 80 68 59 60 62 64 78 107 99 113 100 120 122 115 118 94 68 70 81 91 103 102 66 98 132 173 256 296 344 351 361
113 111 108 108 112 114 110 111 108 106 97 86 83 87 93 83 73 73 80 63 74 83 101 99 97 83 61 59 81 98 84 84 94 112 91 78 94 128 173 257 270 309 334
129 124 102 103 125 127 120 114 103 89 78 73 69 74 77 69 85 93 104 114 98 100 102 89 58 34 35 50 72 83 91 104 103 108 109 86 66 62 129 145 191 230 252
114 101 98 117 128 118 115 100 88 80 75 67 68 68 74 64 75 87 104 119 132 121 108 94 48 36 28 40 74 70 98 86 65 73 73 60 116 90 59 99 180 199 249
87 97 118 136 133 115 101 100 96 90 82 74 72 71 66 77 67 81 136 160 161 157 141 91 54 27 23 104 104 102 111 112 93 81 86 92 79 88 58 80 86 141 188
147 158 158 144 127 109 93 86 78 65 55 55 54 53 63 60 46 100 155 180 221 187 172 127 102 79 69 70 86 79 80 77 83 107 101 88 83 99 104 80 57 89 159
153 148 142 128 119 86 74 67 64 61 66 70 68 68 64 61 47 136 163 112 111 123 113 68 96 112 51 93 89 67 64 67 50 67 87 95 105 113 118 97 79 85 215
182 152 143 121 96 85 83 80 87 86 88 82 70 67 67 82 99 101 86 82 99 120 108 125 144 136 67 97 69 53 76 96 57 48 44 64 74 66 86 128 121 136 182
155 132 118 94 87 85 79 85 94 104 102 98 96 82 59 97 92 100 120 134 143 138 112 105 114 120 102 82 69 69 75 54 24 3 -7 18 57 81 92 106 90 138 178
123 109 98 88 81 66 81 97 102 103 89 97 98 89 80 94 102 87 98 124 126 116 84 78 63 21 47 61 71 80 46 48 34 4 21 16 19 28 59 69 66 67 173
116 101 87 80 80 80 92 112 108 105 102 101 80 75 95 102 84 78 78 88 102 81 82 56 47 38 56 55 51 65 78 47 28 29 55 17 4 13 58 34 57 119 207
102 87 83 91 102 91 110 116 116 97 98 89 87 98 113 117 115 66 56 70 67 63 51 38 30 41 38 33 52 82 66 32 33 44 33 6 17 1 49 45 148 254 336
105 101 104 104 90 118 117 108 111 102 95 96 108 122 121 109 92 68 54 28 28 32 16 3 18 23 23 29 29 39 30 27 29 18 -7 -31 -9 -28 17 69 171 209 292
114 109 112 127 128 124 113 116 102 103 93 124 130 127 112 98 74 46 44 47 42 15 -12 7 4 -21 -17 1 30 19 9 36 -14 -10 -47 -45 -32 11 60 133 171 147 135
125 139 152 149 132 126 124 124 79 75 86 84 63 76 88 55 48 40 43 57 39 10 -24 3 -22 -27 -19 -2 11 30 22 22 -29 -39 -51 -29 -21 25 84 143 114 71 66
152 160 163 143 137 135 133 133 134 119 75 56 34 29 28 38 44 35 20 36 18 -1 -31 -10 -44 -36 -10 -1 -9 11 16 10 -28 -54 -40 -10 -2 56 109 151 98 48 32
172 121 158 157 148 146 140 145 156 148 125 103 55 30 31 37 39 50 50 40 -14 4 -18 -48 -37 -16 -10 3 -5 18 27 -1 -41 -47 -24 -19 11 70 133 75 52 47 42
174 179 171 161 157 132 154 157 146 131 117 116 103 66 47 33 35 46 40 59 -2 -49 -61 -32 -14 -7 -3 -5 26 26 25 1 -35 -24 -8 5 69 134 102 57 40 17 31
199 126 131 158 157 157 159 148 133 121 117 122 111 92 83 78 57 38 46 46 26 -86 -71 -24 -3 -16 -13 13 43 33 25 -1 -10 30 64 130 167 147 87 49 38 8 -12
206 185 114 160 162 152 147 133 133 130 124 125 128 112 26 62 39 54 63 45 -38 -95 -43 -19 0 1 7 47 66 40 25 11 19 91 152 166 142 70 24 -17 -22 -23 -11
192 173 163 161 158 152 133 118 118 124 132 129 132 118 42 74 75 66 59 18 -77 -66 -20 -13 -1 3 46 74 88 41 36 27 91 129 165 125 78 -3 -24 -24 -32 -18 -5
174 167 163 155 142 101 131 131 133 132 134 132 126 114 85 67 67 46 -45 -63 -50 -12 0 1 -6 52 72 77 68 33 44 106 122 145 133 101 19 -30 -44 -35 -30 -20 -13
145 138 139 136 132 113 125 135 139 103 105 115 112 98 20 -38 -58 -43 -41 -32 -5 22 26 -2 38 91 104 106 50 54 83 105 97 112 113 65 -25 -45 -44 -35 -34 -36 -37
142 142 135 132 135 135 131 129 123 120 116 117 103 74 -59 -56 -41 -29 -19 6 21 34 39 40 59 102 111 113 84 133 143 82 100 95 89 34 -62 -48 -39 -44 -53 -52 -42
139 135 138 141 142 141 144 143 136 132 125 112 68 38 -21 -28 -25 -9 17 31 28 56 55 59 107 126 129 75 119 177 76 94 87 67 71 -7 -38 -38 -38 -40 -42 -45 -41
Wind_Speed
68 69 72 75 77 79 82 85 88 89 91 93 94 94 94 94 95 95 94 94 95 93 90 95 94 92 93 92 91 91 94 93 107 116 97 95 88 86 83 76 70 68 65
69 73 77 79 83 87 90 91 92 95 95 97 97 97 97 99 98 97 98 95 92 101 98 96 95 92 94 93 93 97 98 97 101 113 107 95 89 83 79 77 73 71 67
74 79 81 85 89 92 93 94 95 97 98 98 98 99 100 97 97 96 93 95 99 99 97 92 92 94 98 97 96 96 98 97 95 100 109 97 92 84 82 77 75 76 70
78 82 85 89 90 91 92 95 97 97 99 100 98 99 97 96 98 94 96 99 97 97 89 88 91 94 97 99 98 95 95 97 94 96 95 95 88 85 77 79 80 76 80
82 83 87 89 89 92 94 96 96 96 96 96 99 98 97 94 93 96 100 102 100 92 85 86 88 92 93 89 97 101 100 102 99 99 99 97 87 83 86 81 81 81 77
81 84 87 89 92 93 94 95 95 96 97 98 99 99 99 97 98 100 103 104 94 92 99 99 97 97 89 99 98 95 96 101 102 100 102 100 100 96 90 90 91 85 88
82 84 87 89 90 91 91 92 94 96 97 98 98 97 99 97 98 101 102 95 98 100 104 109 111 99 98 107 105 103 103 99 93 96 100 98 100 97 98 93 94 97 95
82 84 85 87 87 88 90 91 93 94 97 98 98 97 99 99 100 103 99 103 105 105 104 109 109 104 104 106 109 111 109 106 98 90 89 97 93 95 93 96 98 101 89
84 84 83 83 85 88 92 94 94 96 96 96 97 101 101 100 98 100 111 110 108 110 108 106 102 104 103 106 108 111 114 112 101 96 90 92 92 91 90 90 87 86 86
81 79 79 81 84 90 92 94 94 95 98 97 99 96 98 100 99 106 106 102 104 103 101 98 96 101 108 110 107 106 109 108 108 109 103 96 89 88 88 86 80 70 69
74 75 76 80 87 88 93 95 97 98 99 99 99 99 97 94 102 103 104 100 97 99 99 98 97 105 110 111 103 94 95 107 105 99 98 94 87 87 86 78 74 77 78
73 79 82 85 88 92 96 97 97 98 100 102 101 101 97 97 98 99 100 97 99 98 96 96 98 108 107 100 91 92 98 100 91 94 93 91 90 86 81 75 64 61 61
78 82 85 89 90 90 95 99 99 97 100 102 101 103 103 99 95 95 94 97 96 96 90 97 107 101 93 88 88 92 92 88 90 92 90 89 84 78 68 61 53 43 36
83 87 88 89 92 94 93 93 96 98 99 98 100 101 99 95 90 88 91 93 94 92 93 96 95 91 89 87 84 82 82 85 88 89 86 80 74 65 63 57 46 36 30
85 86 88 88 92 96 94 95 95 91 89 97 95 94 95 93 89 96 99 96 94 96 103 91 89 88 85 80 77 78 81 84 84 82 76 71 65 61 57 45 33 30 17
88 89 89 91 93 96 98 100 89 86 87 84 81 79 79 79 87 99 98 95 94 96 93 88 89 85 78 75 74 76 76 77 79 76 68 64 61 58 53 40 26 22 12
86 88 90 92 94 95 95 93 97 90 80 77 72 71 73 73 90 96 93 90 93 91 89 85 84 77 71 69 68 66 70 68 70 67 61 57 55 54 40 27 20 14 10
85 87 88 90 89 88 86 83 83 85 84 77 71 73 74 81 86 91 92 90 90 84 84 81 78 72 66 62 62 63 61 63 63 59 54 51 50 43 26 14 13 13 10
84 85 85 84 82 81 81 78 75 71 67 67 67 71 72 75 82 72 78 75 86 85 83 78 73 65 59 57 59 55 55 60 61 51 46 43 36 22 16 12 14 9 15
81 81 83 82 79 79 76 72 72 68 65 68 71 74 82 78 80 72 65 65 78 76 73 72 66 58 54 57 54 49 54 56 52 44 36 28 26 21 13 9 11 15 21
81 80 80 80 74 72 70 68 68 67 65 65 64 64 92 91 87 82 63 62 80 67 66 63 60 54 55 55 47 49 54 51 42 33 26 23 22 12 13 16 21 27 30
78 78 76 73 71 68 65 65 69 69 67 68 70 70 83 82 75 62 65 65 71 61 59 57 54 53 56 48 47 50 50 42 32 27 26 21 12 14 17 28 33 34 36
76 74 71 69 66 64 64 63 64 66 66 65 66 71 81 79 71 55 70 54 64 58 55 53 51 54 50 45 46 46 43 31 26 29 29 20 12 19 32 37 38 40 41
72 72 70 69 68 69 70 68 66 65 65 66 64 57 82 80 44 27 57 58 58 53 51 49 51 50 46 46 45 42 32 25 27 32 30 20 24 32 41 42 43 44 44
73 73 71 71 71 71 69 68 67 65 62 58 58 46 74 65 43 35 47 56 53 50 49 49 47 45 45 47 42 31 22 25 30 32 33 4 43 48 47 47 49 49 49
73 73 71 70 70 67 65 62 56 51 44 43 28 22 46 68 49 45 46 52 49 48 48 46 44 44 43 39 28 19 22 32 36 36 41 57 54 53 53 55 55 56 56
Wind_Direction
345 344 343 341 340 339 337 335 333 332 331 329 328 326 325 324 322 320 319 318 316 315 315 313 311 311 309 309 307 305 303 302 299 300 302 301 298 295 294 291 288 285 282
343 341 340 338 337 335 333 333 332 330 329 328 327 326 324 323 322 320 318 317 317 314 314 313 312 313 311 311 309 306 305 304 302 300 302 303 301 299 295 291 288 284 283
339 338 337 336 335 333 333 333 332 330 330 329 327 326 325 324 323 322 320 319 317 316 314 313 314 314 312 311 310 308 307 306 305 302 300 303 303 302 300 295 292 291 284
337 336 335 335 335 335 334 333 332 331 329 329 329 327 326 325 324 322 321 319 318 317 316 315 315 315 314 312 311 311 310 307 307 305 304 303 305 305 303 300 298 295 290
335 335 335 335 335 334 333 333 332 332 332 331 330 329 328 327 326 324 323 321 320 319 319 319 318 318 316 316 314 311 309 306 307 306 304 305 305 305 304 303 299 299 294
335 334 335 335 335 336 335 335 334 334 333 332 331 330 329 328 326 324 323 322 321 320 318 318 318 317 316 315 314 313 312 308 305 305 303 302 301 302 303 303 301 298 294
335 336 336 336 336 336 336 335 335 333 333 332 332 331 330 329 328 326 325 325 322 320 318 317 315 315 315 314 312 310 310 309 308 306 303 302 302 303 303 301 301 296 291
336 337 338 337 337 337 336 335 334 334 333 332 332 331 329 329 328 327 326 324 321 319 318 317 314 313 313 312 310 308 307 307 308 307 304 303 302 303 300 300 298 295 293
337 337 338 338 337 337 335 334 334 333 333 332 331 330 329 329 329 328 325 323 321 320 319 318 315 313 312 312 311 308 305 305 308 307 306 305 303 301 299 299 296 297 290
337 337 338 337 337 335 333 333 333 333 332 332 331 331 330 328 329 327 327 325 323 323 323 322 319 315 311 310 310 308 306 307 308 307 307 307 305 302 298 296 296 296 290
338 337 337 336 334 333 332 332 332 331 331 330 330 330 329 329 328 328 327 327 326 325 325 324 322 316 311 308 307 309 310 307 307 309 308 307 305 300 296 299 296 292 280
337 335 335 334 333 332 331 332 332 332 331 330 329 329 329 329 329 329 328 328 327 326 326 326 324 316 310 310 311 308 307 309 312 309 308 305 300 295 295 291 300 302 293
336 335 334 333 333 333 332 332 332 332 331 330 330 329 329 330 330 330 330 329 329 328 328 326 321 317 316 313 309 304 307 314 311 308 306 298 294 291 288 294 305 317 314
335 334 333 333 333 333 333 333 333 332 332 331 330 330 330 330 332 332 332 331 330 330 328 327 325 320 313 305 302 305 311 310 311 304 297 286 282 275 281 291 314 322 319
334 334 334 334 333 333 333 333 333 333 333 332 332 332 332 332 333 330 329 328 328 324 316 324 326 321 309 303 300 302 304 310 306 301 288 280 275 278 285 306 327 316 331
334 335 334 334 333 333 332 332 334 335 336 337 337 338 337 337 334 329 325 321 318 315 319 322 321 311 301 297 297 297 300 299 300 295 285 277 271 271 287 303 323 306 322
335 334 334 334 333 333 333 333 333 336 339 341 343 343 342 341 335 329 309 314 319 318 321 320 310 301 295 294 294 292 294 295 296 292 285 277 268 275 303 311 305 316 326
335 334 334 334 334 334 335 336 336 337 338 342 345 343 343 340 337 330 316 321 323 333 330 310 303 298 292 288 291 292 291 295 296 292 283 277 279 281 317 343 289 278 345
336 335 335 335 335 335 336 337 338 339 340 341 343 343 344 343 339 343 340 340 321 314 315 306 300 292 285 285 289 288 291 296 298 289 283 280 287 319 311 288 266 342 12
336 336 336 336 336 336 337 337 338 339 339 340 341 341 339 341 339 344 346 345 333 302 300 299 295 287 283 289 288 289 294 297 295 286 275 257 223 237 272 289 343 1 5
336 336 336 336 337 337 337 338 337 337 339 339 340 343 329 331 332 336 344 345 313 293 293 292 289 284 287 289 287 291 296 294 286 268 243 237 226 282 355 8 19 31 34
337 337 338 338 338 338 339 338 337 337 338 338 338 339 334 335 338 344 341 342 296 289 288 286 284 284 288 286 289 293 294 287 269 233 221 230 292 349 7 34 40 33 30
338 338 338 339 338 338 337 338 338 337 337 338 339 339 334 331 338 347 295 282 291 286 286 284 281 286 285 286 290 291 288 270 241 208 201 220 264 12 42 48 45 37 30
338 337 337 338 338 337 337 336 337 337 338 339 341 343 318 303 282 285 283 285 286 283 283 282 283 284 285 290 292 290 274 239 205 191 193 210 27 42 54 50 41 39 37
338 337 337 337 337 337 337 337 337 338 339 341 343 345 292 286 275 274 276 283 281 280 281 284 283 284 290 294 294 280 243 202 188 182 177 320 64 68 61 52 50 42 40
337 337 337 337 337 337 337 338 338 339 339 341 332 308 281 291 273 272 273 280 278 278 281 282 282 287 292 293 280 247 199 177 169 168 157 111 83 73 67 69 62 52 49